Regional Weather Roundup
Issued by NWS

Home | Current Version | Previous Version | Graphics & Text | Print | Product List | Glossary On
Versions: 1 2 3 4 5 6 7 8 9 10 11 12 13 14 15 16 17 18 19 20 21 22 23 24 25 26 27 28 29 30 31 32 33 34 35 36 37 38 39 40 41 42 43 44 45 46 47 48 49 50
000
ASUS43 KFSD 062110
RWRSD

WEATHER ROUNDUP FOR SOUTH DAKOTA
NATIONAL WEATHER SERVICE SIOUX FALLS SD
400 PM CDT MON JUL 06 2015

NOTE: "FAIR" INDICATES FEW OR NO CLOUDS BELOW 12,000 FEET WITH NO
SIGNIFICANT WEATHER AND/OR OBSTRUCTIONS TO VISIBILITY.


SDZ001>005-009-010-012>017-062200-
NORTHWEST AND NORTH CENTRAL SOUTH DAKOTA

CITY           SKY/WX    TMP DP  RH WIND       PRES   REMARKS
BUFFALO          N/A     70  48  45 N7G17     30.15F
FAITH            N/A     71  50  47 N12       30.18F
MOBRIDGE       PTSUNNY   75  54  47 N12       30.12F
$$

SDZ012>016-024>037-041>051-057-063-072>074-062200-
SOUTHWEST AND SOUTH CENTRAL SOUTH DAKOTA

CITY           SKY/WX    TMP DP  RH WIND       PRES   REMARKS
RAPID CTY ARPT PTSUNNY   70  54  56 N7        30.22F
PIERRE         MOSUNNY   76  54  46 N18G24    30.12S
CUSTER         CLOUDY    58  50  75 VRB6      30.30F HAZE
ELLSWORTH AFB  PTSUNNY   70  54  57 N12       30.21F
PHILIP         CLOUDY    72  56  57 NW9       30.17S
PINE RIDGE     PTSUNNY   70  53  54 VRB6      30.23S
SPEARFISH      FAIR      64  54  68 NW3       30.26F
WINNER         MOCLDY    76  53  44 N20G25    30.12S
$$

SDZ004>011-016>023-039-040-062200-
NORTHEAST SOUTH DAKOTA

CITY           SKY/WX    TMP DP  RH WIND       PRES   REMARKS
ABERDEEN       MOSUNNY   73  53  49 N13       30.10S HAZE
WATERTOWN      MOSUNNY   72  55  55 N20G25    30.07R HAZE
BROOKINGS      PTSUNNY   70  55  60 N15G25    30.07R
SISSETON         N/A     70  50  49 N17G31    30.08R
$$

SDZ017-020-022-023-036>040-048>070-062200-
SOUTHEAST SOUTH DAKOTA

CITY           SKY/WX    TMP DP  RH WIND       PRES   REMARKS
SIOUX FALLS    CLOUDY    74  60  61 N15G22    30.03R SMOKE
HURON          MOSUNNY   74  57  55 N15G23    30.08R HAZE
CHAMBERLAIN    MOSUNNY   75  54  48 N16G22    30.10S
MITCHELL       MOSUNNY   75  59  57 N20G25    30.07R HAZE
YANKTON        SUNNY     77  59  53 N18G24    30.01S
$$

ABBREVIATIONS USED IN REMARKS
   TC - TEMPERATURE IN CELSIUS
  WCI - WIND CHILL INDEX
   HX - HEAT INDEX
  VSB - VISIBILITY




USA.gov is the U.S. government's official web portal to all federal, state and local government web resources and services.